Time,TemperatureF,DewpointF,PressureIn,WindDirection,WindDirectionDegrees,WindSpeedMPH,WindSpeedGustMPH,Humidity,HourlyPrecipIn,Conditions,Clouds,dailyrainin,SolarRadiationWatts/m^2,SoftwareType,DateUTC
2013-06-23 00:02:00,63.0,11.0,-100.00,NW,306,9.0,13.0,13,0.00,,,0.00,0.000000,,2013-06-23 06:02:00,
2013-06-23 00:12:00,62.0,12.0,-100.00,NW,312,5.0,9.0,14,-99.99,,,0.00,0.000000,,2013-06-23 06:12:00,
2013-06-23 00:43:00,62.0,12.0,-100.00,NW,312,5.0,9.0,14,-99.99,,,0.00,0.000000,,2013-06-23 06:43:00,
2013-06-23 01:02:00,62.0,12.0,-100.00,NW,312,5.0,9.0,14,-99.99,,,0.00,0.000000,,2013-06-23 07:02:00,
2013-06-23 01:12:00,62.0,11.0,-100.00,NW,316,5.0,8.0,13,-99.99,,,0.00,0.000000,,2013-06-23 07:12:00,
2013-06-23 01:43:00,62.0,11.0,-100.00,NW,316,5.0,8.0,13,-99.99,,,0.00,0.000000,,2013-06-23 07:43:00,
2013-06-23 01:53:00,62.0,11.0,-100.00,NW,316,5.0,8.0,13,-99.99,,,0.00,0.000000,,2013-06-23 07:53:00,
2013-06-23 02:02:00,62.0,11.0,-100.00,NW,316,5.0,8.0,13,-99.99,,,0.00,0.000000,,2013-06-23 08:02:00,
2013-06-23 02:12:00,61.0,13.0,-100.00,NNW,331,7.0,9.0,15,-99.99,,,0.00,0.000000,,2013-06-23 08:12:00,
2013-06-23 02:43:00,61.0,13.0,-100.00,NNW,331,7.0,9.0,15,-99.99,,,0.00,0.000000,,2013-06-23 08:43:00,
2013-06-23 02:53:00,61.0,13.0,-100.00,NNW,331,7.0,9.0,15,-99.99,,,0.00,0.000000,,2013-06-23 08:53:00,
2013-06-23 03:02:00,61.0,13.0,-100.00,NNW,331,7.0,9.0,15,-99.99,,,0.00,0.000000,,2013-06-23 09:02:00,
2013-06-23 03:43:00,60.0,11.0,-100.00,SE,134,4.0,6.0,14,-99.99,,,0.00,0.000000,,2013-06-23 09:43:00,
2013-06-23 03:54:00,60.0,11.0,-100.00,SE,134,4.0,6.0,14,-99.99,,,0.00,0.000000,,2013-06-23 09:54:00,
2013-06-23 04:02:00,60.0,11.0,-100.00,SE,134,4.0,6.0,14,-99.99,,,0.00,0.000000,,2013-06-23 10:02:00,
2013-06-23 04:11:00,60.0,11.0,-100.00,SE,134,4.0,6.0,14,-99.99,,,0.00,0.000000,,2013-06-23 10:11:00,
2013-06-23 04:43:00,59.0,11.0,-100.00,SW,215,6.0,12.0,15,-99.99,,,0.00,0.000000,,2013-06-23 10:43:00,
2013-06-23 04:53:00,59.0,11.0,-100.00,SW,215,6.0,12.0,15,-99.99,,,0.00,0.000000,,2013-06-23 10:53:00,
2013-06-23 05:01:00,59.0,11.0,-100.00,SW,215,6.0,12.0,15,-99.99,,,0.00,0.000000,,2013-06-23 11:01:00,
2013-06-23 05:11:00,59.0,11.0,-100.00,SW,215,6.0,12.0,15,-99.99,,,0.00,0.000000,,2013-06-23 11:11:00,
2013-06-23 05:12:00,58.0,11.0,-100.00,SSW,208,4.0,7.0,15,-99.99,,,0.00,0.000000,,2013-06-23 11:12:00,
2013-06-23 05:33:00,58.0,11.0,-100.00,SSW,208,4.0,7.0,15,-99.99,,,0.00,0.000000,,2013-06-23 11:33:00,
2013-06-23 05:43:00,58.0,11.0,-100.00,SSW,208,4.0,7.0,15,-99.99,,,0.00,0.000000,,2013-06-23 11:43:00,
2013-06-23 05:53:00,58.0,11.0,-100.00,SSW,208,4.0,7.0,15,-99.99,,,0.00,0.000000,,2013-06-23 11:53:00,
2013-06-23 06:01:00,58.0,11.0,-100.00,SSW,208,4.0,7.0,15,-99.99,,,0.00,0.000000,,2013-06-23 12:01:00,
2013-06-23 06:43:00,54.0,10.0,-100.00,SE,139,6.0,7.0,17,-99.99,,,0.00,3.000000,,2013-06-23 12:43:00,
2013-06-23 06:53:00,54.0,10.0,-100.00,SE,139,6.0,7.0,17,-99.99,,,0.00,3.000000,,2013-06-23 12:53:00,
2013-06-23 07:02:00,54.0,10.0,-100.00,SE,139,6.0,7.0,17,-99.99,,,0.00,3.000000,,2013-06-23 13:02:00,
2013-06-23 07:11:00,54.0,10.0,-100.00,SE,139,6.0,7.0,17,-99.99,,,0.00,3.000000,,2013-06-23 13:11:00,
2013-06-23 07:43:00,57.0,14.0,-100.00,South,175,7.0,9.0,18,-99.99,,,0.00,68.000000,,2013-06-23 13:43:00,
2013-06-23 07:54:00,57.0,14.0,-100.00,South,175,7.0,9.0,18,-99.99,,,0.00,68.000000,,2013-06-23 13:54:00,
2013-06-23 08:04:00,57.0,14.0,-100.00,South,175,7.0,9.0,18,-99.99,,,0.00,68.000000,,2013-06-23 14:04:00,
2013-06-23 08:11:00,57.0,14.0,-100.00,South,175,7.0,9.0,18,-99.99,,,0.00,68.000000,,2013-06-23 14:11:00,
2013-06-23 08:44:00,61.0,20.0,-100.00,South,179,6.0,9.0,20,-99.99,,,0.00,292.000000,,2013-06-23 14:44:00,
2013-06-23 08:52:00,61.0,20.0,-100.00,South,179,6.0,9.0,20,-99.99,,,0.00,292.000000,,2013-06-23 14:52:00,
2013-06-23 09:05:00,61.0,20.0,-100.00,South,179,6.0,9.0,20,-99.99,,,0.00,292.000000,,2013-06-23 15:05:00,
2013-06-23 09:11:00,61.0,20.0,-100.00,South,179,6.0,9.0,20,-99.99,,,0.00,292.000000,,2013-06-23 15:11:00,
2013-06-23 09:43:00,64.0,22.0,-100.00,SSE,148,6.0,10.0,20,0.00,,,0.00,480.000000,,2013-06-23 15:43:00,
2013-06-23 09:53:00,64.0,22.0,-100.00,SSE,148,6.0,10.0,20,0.00,,,0.00,480.000000,,2013-06-23 15:53:00,
2013-06-23 10:06:00,64.0,22.0,-100.00,SSE,148,6.0,10.0,20,0.00,,,0.00,480.000000,,2013-06-23 16:06:00,
2013-06-23 10:11:00,64.0,22.0,-100.00,SSE,148,6.0,10.0,20,0.00,,,0.00,480.000000,,2013-06-23 16:11:00,
2013-06-23 10:36:00,68.0,23.0,-100.00,South,173,8.0,12.0,18,0.00,,,0.00,657.000000,,2013-06-23 16:36:00,
2013-06-23 10:43:00,68.0,23.0,-100.00,South,173,8.0,12.0,18,0.00,,,0.00,657.000000,,2013-06-23 16:43:00,
2013-06-23 10:53:00,68.0,23.0,-100.00,South,173,8.0,12.0,18,0.00,,,0.00,657.000000,,2013-06-23 16:53:00,
2013-06-23 11:03:00,68.0,23.0,-100.00,South,173,8.0,12.0,18,0.00,,,0.00,657.000000,,2013-06-23 17:03:00,
2013-06-23 11:11:00,68.0,23.0,-100.00,South,173,8.0,12.0,18,0.00,,,0.00,657.000000,,2013-06-23 17:11:00,
2013-06-23 11:34:00,73.0,24.0,-100.00,South,172,7.0,14.0,16,0.00,,,0.00,808.000000,,2013-06-23 17:34:00,
2013-06-23 11:43:00,73.0,24.0,-100.00,South,172,7.0,14.0,16,0.00,,,0.00,808.000000,,2013-06-23 17:43:00,
2013-06-23 11:53:00,73.0,24.0,-100.00,South,172,7.0,14.0,16,0.00,,,0.00,808.000000,,2013-06-23 17:53:00,
2013-06-23 12:01:00,73.0,24.0,-100.00,South,172,7.0,14.0,16,0.00,,,0.00,808.000000,,2013-06-23 18:01:00,
2013-06-23 12:11:00,73.0,24.0,-100.00,South,172,7.0,14.0,16,0.00,,,0.00,808.000000,,2013-06-23 18:11:00,
2013-06-23 12:34:00,75.0,21.0,-100.00,SSW,199,8.0,17.0,13,0.00,,,-99.99,916.000000,,2013-06-23 18:34:00,
2013-06-23 12:43:00,75.0,21.0,-100.00,SSW,199,8.0,17.0,13,0.00,,,-99.99,916.000000,,2013-06-23 18:43:00,
2013-06-23 12:53:00,75.0,21.0,-100.00,SSW,199,8.0,17.0,13,0.00,,,-99.99,916.000000,,2013-06-23 18:53:00,
2013-06-23 13:01:00,75.0,21.0,-100.00,SSW,199,8.0,17.0,13,0.00,,,-99.99,916.000000,,2013-06-23 19:01:00,
2013-06-23 13:11:00,75.0,21.0,-100.00,SSW,199,8.0,17.0,13,0.00,,,-99.99,916.000000,,2013-06-23 19:11:00,
2013-06-23 13:12:00,78.0,19.0,-100.00,SW,217,8.0,19.0,11,0.00,,,0.00,967.000000,,2013-06-23 19:12:00,
2013-06-23 13:43:00,78.0,19.0,-100.00,SW,217,8.0,19.0,11,0.00,,,0.00,967.000000,,2013-06-23 19:43:00,
2013-06-23 13:53:00,78.0,19.0,-100.00,SW,217,8.0,19.0,11,0.00,,,0.00,967.000000,,2013-06-23 19:53:00,
2013-06-23 14:02:00,78.0,19.0,-100.00,SW,217,8.0,19.0,11,0.00,,,0.00,967.000000,,2013-06-23 20:02:00,
2013-06-23 14:42:00,79.0,15.0,-100.00,SSW,206,11.0,20.0,9,0.00,,,0.00,969.000000,,2013-06-23 20:42:00,
2013-06-23 14:53:00,79.0,15.0,-100.00,SSW,206,11.0,20.0,9,0.00,,,0.00,969.000000,,2013-06-23 20:53:00,
2013-06-23 15:01:00,79.0,15.0,-100.00,SSW,206,11.0,20.0,9,0.00,,,0.00,969.000000,,2013-06-23 21:01:00,
2013-06-23 15:11:00,79.0,15.0,-100.00,SSW,206,11.0,20.0,9,0.00,,,0.00,969.000000,,2013-06-23 21:11:00,
2013-06-23 15:44:00,79.0,15.0,-100.00,SW,231,10.0,20.0,9,0.00,,,0.00,903.000000,,2013-06-23 21:44:00,
2013-06-23 15:52:00,79.0,15.0,-100.00,SW,231,10.0,20.0,9,0.00,,,0.00,903.000000,,2013-06-23 21:52:00,
2013-06-23 16:01:00,79.0,15.0,-100.00,SW,231,10.0,20.0,9,0.00,,,0.00,903.000000,,2013-06-23 22:01:00,
2013-06-23 16:11:00,79.0,15.0,-100.00,SW,231,10.0,20.0,9,0.00,,,0.00,903.000000,,2013-06-23 22:11:00,
2013-06-23 16:32:00,74.0,6.0,-100.00,SW,230,7.0,19.0,7,0.00,,,0.00,675.000000,,2013-06-23 22:32:00,
2013-06-23 16:43:00,74.0,6.0,-100.00,SW,230,7.0,19.0,7,0.00,,,0.00,675.000000,,2013-06-23 22:43:00,
2013-06-23 16:53:00,74.0,6.0,-100.00,SW,230,7.0,19.0,7,0.00,,,0.00,675.000000,,2013-06-23 22:53:00,
2013-06-23 17:01:00,74.0,6.0,-100.00,SW,230,7.0,19.0,7,0.00,,,0.00,675.000000,,2013-06-23 23:01:00,
2013-06-23 17:11:00,74.0,6.0,-100.00,SW,230,7.0,19.0,7,0.00,,,0.00,675.000000,,2013-06-23 23:11:00,
2013-06-23 17:44:00,76.0,13.0,-100.00,SSW,196,7.0,17.0,9,0.00,,,0.00,497.000000,,2013-06-23 23:44:00,
2013-06-23 17:52:00,76.0,13.0,-100.00,SSW,196,7.0,17.0,9,0.00,,,0.00,497.000000,,2013-06-23 23:52:00,
2013-06-23 18:01:00,76.0,13.0,-100.00,SSW,196,7.0,17.0,9,0.00,,,0.00,497.000000,,2013-06-24 00:01:00,
2013-06-23 18:11:00,76.0,13.0,-100.00,SSW,196,7.0,17.0,9,0.00,,,0.00,497.000000,,2013-06-24 00:11:00,
2013-06-23 18:43:00,72.0,7.0,-100.00,SSW,197,11.0,21.0,8,0.00,,,-99.99,372.000000,,2013-06-24 00:43:00,
2013-06-23 18:52:00,72.0,7.0,-100.00,SSW,197,11.0,21.0,8,0.00,,,-99.99,372.000000,,2013-06-24 00:52:00,
2013-06-23 19:01:00,72.0,7.0,-100.00,SSW,197,11.0,21.0,8,0.00,,,-99.99,372.000000,,2013-06-24 01:01:00,
2013-06-23 19:11:00,72.0,7.0,-100.00,SSW,197,11.0,21.0,8,0.00,,,-99.99,372.000000,,2013-06-24 01:11:00,
2013-06-23 19:32:00,70.0,9.0,-100.00,WNW,285,7.0,15.0,9,0.00,,,0.00,200.000000,,2013-06-24 01:32:00,
2013-06-23 19:42:00,70.0,9.0,-100.00,WNW,285,7.0,15.0,9,0.00,,,0.00,200.000000,,2013-06-24 01:42:00,
2013-06-23 19:53:00,70.0,9.0,-100.00,WNW,285,7.0,15.0,9,0.00,,,0.00,200.000000,,2013-06-24 01:53:00,
2013-06-23 20:02:00,70.0,9.0,-100.00,WNW,285,7.0,15.0,9,0.00,,,0.00,200.000000,,2013-06-24 02:02:00,
2013-06-23 20:11:00,70.0,9.0,-100.00,WNW,285,7.0,15.0,9,0.00,,,0.00,200.000000,,2013-06-24 02:11:00,
2013-06-23 20:33:00,69.0,12.0,-100.00,West,275,5.0,10.0,11,0.00,,,0.00,90.000000,,2013-06-24 02:33:00,
2013-06-23 20:42:00,69.0,12.0,-100.00,West,275,5.0,10.0,11,0.00,,,0.00,90.000000,,2013-06-24 02:42:00,
2013-06-23 20:53:00,69.0,12.0,-100.00,West,275,5.0,10.0,11,0.00,,,0.00,90.000000,,2013-06-24 02:53:00,
2013-06-23 21:01:00,69.0,12.0,-100.00,West,275,5.0,10.0,11,0.00,,,0.00,90.000000,,2013-06-24 03:01:00,
2013-06-23 21:11:00,69.0,12.0,-100.00,West,275,5.0,10.0,11,0.00,,,0.00,90.000000,,2013-06-24 03:11:00,
2013-06-23 21:12:00,67.0,9.0,-100.00,West,269,6.0,10.0,10,0.00,,,0.00,7.000000,,2013-06-24 03:12:00,
2013-06-23 21:33:00,67.0,9.0,-100.00,West,269,6.0,10.0,10,0.00,,,0.00,7.000000,,2013-06-24 03:33:00,
2013-06-23 21:43:00,67.0,9.0,-100.00,West,269,6.0,10.0,10,0.00,,,0.00,7.000000,,2013-06-24 03:43:00,
2013-06-23 21:53:00,67.0,9.0,-100.00,West,269,6.0,10.0,10,0.00,,,0.00,7.000000,,2013-06-24 03:53:00,
2013-06-23 22:02:00,67.0,9.0,-100.00,West,269,6.0,10.0,10,0.00,,,0.00,7.000000,,2013-06-24 04:02:00,
2013-06-23 22:12:00,66.0,8.0,-100.00,WNW,287,6.0,13.0,10,0.00,,,0.00,0.000000,,2013-06-24 04:12:00,
2013-06-23 22:33:00,66.0,8.0,-100.00,WNW,287,6.0,13.0,10,0.00,,,0.00,0.000000,,2013-06-24 04:33:00,
2013-06-23 22:43:00,66.0,8.0,-100.00,WNW,287,6.0,13.0,10,0.00,,,0.00,0.000000,,2013-06-24 04:43:00,
2013-06-23 22:53:00,66.0,8.0,-100.00,WNW,287,6.0,13.0,10,0.00,,,0.00,0.000000,,2013-06-24 04:53:00,
2013-06-23 23:02:00,66.0,8.0,-100.00,WNW,287,6.0,13.0,10,0.00,,,0.00,0.000000,,2013-06-24 05:02:00,
2013-06-23 23:47:00,66.0,8.0,-100.00,SSW,195,7.0,10.0,10,-99.99,,,0.00,0.000000,,2013-06-24 05:47:00,